Time,TemperatureF,DewpointF,PressureIn,WindDirection,WindDirectionDegrees,WindSpeedMPH,WindSpeedGustMPH,Humidity,HourlyPrecipIn,Conditions,Clouds,dailyrainin,SoftwareType,DateUTC
2013-07-21 00:08:00,61.7,59.0,29.79,NNE,16,0.0,1.0,92,0.00,,,0.06,weatherlink.com 1.10,2013-07-21 04:08:00,
2013-07-21 00:23:00,61.8,59.0,29.79,NNE,16,1.0,1.0,91,0.00,,,0.06,weatherlink.com 1.10,2013-07-21 04:23:00,
2013-07-21 00:38:00,61.8,59.0,29.79,NNE,16,0.0,1.0,91,0.00,,,0.06,weatherlink.com 1.10,2013-07-21 04:38:00,
2013-07-21 00:53:00,61.7,59.0,29.80,NNE,16,0.0,1.0,90,0.00,,,0.06,weatherlink.com 1.10,2013-07-21 04:53:00,
2013-07-21 01:08:00,61.4,58.0,29.81,NNE,16,1.0,1.0,89,0.00,,,0.06,weatherlink.com 1.10,2013-07-21 05:08:00,
2013-07-21 01:23:00,61.5,59.0,29.82,NNE,16,1.0,2.0,90,0.00,,,0.06,weatherlink.com 1.10,2013-07-21 05:23:00,
2013-07-21 01:38:00,61.3,59.0,29.82,NNE,16,0.0,1.0,91,0.00,,,0.06,weatherlink.com 1.10,2013-07-21 05:38:00,
2013-07-21 01:53:00,61.1,58.0,29.82,NNE,16,0.0,0.0,89,0.00,,,0.06,weatherlink.com 1.10,2013-07-21 05:53:00,
2013-07-21 02:08:00,61.2,59.0,29.82,NNE,16,0.0,1.0,91,0.00,,,0.06,weatherlink.com 1.10,2013-07-21 06:08:00,
2013-07-21 02:23:00,61.0,58.0,29.82,NNE,16,0.0,0.0,90,0.00,,,0.00,weatherlink.com 1.10,2013-07-21 06:23:00,
2013-07-21 02:38:00,60.9,58.0,29.82,NNE,15,1.0,1.0,90,0.00,,,0.00,weatherlink.com 1.10,2013-07-21 06:38:00,
2013-07-21 02:53:00,60.7,58.0,29.83,NNE,16,1.0,1.0,90,0.00,,,0.00,weatherlink.com 1.10,2013-07-21 06:53:00,
2013-07-21 03:08:00,60.6,58.0,29.83,NNE,16,0.0,1.0,91,0.00,,,0.00,weatherlink.com 1.10,2013-07-21 07:08:00,
2013-07-21 03:23:00,60.2,58.0,29.83,NNE,16,2.0,2.0,91,0.00,,,0.00,weatherlink.com 1.10,2013-07-21 07:23:00,
2013-07-21 03:39:00,59.2,56.0,29.83,NNE,22,0.0,1.0,90,0.00,,,0.00,weatherlink.com 1.10,2013-07-21 07:39:00,
2013-07-21 03:53:00,58.8,56.0,29.84,NNE,22,1.0,1.0,91,0.00,,,0.00,weatherlink.com 1.10,2013-07-21 07:53:00,
2013-07-21 04:08:00,57.9,56.0,29.85,NNE,22,2.0,2.0,92,0.00,,,0.00,weatherlink.com 1.10,2013-07-21 08:08:00,
2013-07-21 04:23:00,57.5,56.0,29.85,NNE,22,0.0,1.0,94,0.00,,,0.00,weatherlink.com 1.10,2013-07-21 08:23:00,
2013-07-21 04:38:00,57.5,56.0,29.85,NNE,22,1.0,1.0,94,0.00,,,0.00,weatherlink.com 1.10,2013-07-21 08:38:00,
2013-07-21 04:53:00,57.5,56.0,29.86,NNE,21,1.0,1.0,95,0.00,,,0.00,weatherlink.com 1.10,2013-07-21 08:53:00,
2013-07-21 05:08:00,57.4,56.0,29.86,NNE,22,0.0,1.0,95,0.00,,,0.00,weatherlink.com 1.10,2013-07-21 09:08:00,
2013-07-21 05:23:00,57.1,56.0,29.87,NNE,22,0.0,1.0,95,0.00,,,0.00,weatherlink.com 1.10,2013-07-21 09:23:00,
2013-07-21 05:38:00,56.5,55.0,29.87,NNE,21,0.0,1.0,96,0.00,,,0.00,weatherlink.com 1.10,2013-07-21 09:38:00,
2013-07-21 05:53:00,57.0,56.0,29.88,NNE,22,1.0,1.0,97,0.00,,,0.00,weatherlink.com 1.10,2013-07-21 09:53:00,
2013-07-21 06:08:00,57.5,57.0,29.88,NNE,22,1.0,1.0,97,0.00,,,0.00,weatherlink.com 1.10,2013-07-21 10:08:00,
2013-07-21 06:23:00,59.1,58.0,29.88,NNE,22,0.0,1.0,95,0.00,,,0.00,weatherlink.com 1.10,2013-07-21 10:23:00,
2013-07-21 06:38:00,60.9,59.0,29.89,NNE,21,0.0,1.0,92,0.00,,,0.00,weatherlink.com 1.10,2013-07-21 10:38:00,
2013-07-21 06:53:00,61.2,59.0,29.90,NNE,22,0.0,1.0,91,0.00,,,0.00,weatherlink.com 1.10,2013-07-21 10:53:00,
2013-07-21 07:08:00,61.6,59.0,29.90,NNE,22,0.0,1.0,91,0.00,,,0.00,weatherlink.com 1.10,2013-07-21 11:08:00,
2013-07-21 07:24:00,62.9,60.0,29.90,NE,34,0.0,1.0,91,0.00,,,0.00,weatherlink.com 1.10,2013-07-21 11:24:00,
2013-07-21 07:39:00,63.5,59.0,29.91,SSE,148,0.0,2.0,85,0.00,,,0.00,weatherlink.com 1.10,2013-07-21 11:39:00,
2013-07-21 07:54:00,65.0,60.0,29.91,South,172,0.0,1.0,84,0.00,,,0.00,weatherlink.com 1.10,2013-07-21 11:54:00,
2013-07-21 08:09:00,65.7,59.0,29.91,SSW,210,0.0,1.0,80,0.00,,,0.00,weatherlink.com 1.10,2013-07-21 12:09:00,
2013-07-21 08:24:00,66.1,60.0,29.92,SSW,210,0.0,1.0,80,0.00,,,0.00,weatherlink.com 1.10,2013-07-21 12:24:00,
2013-07-21 08:39:00,66.7,60.0,29.92,SSE,155,0.0,1.0,80,0.00,,,0.00,weatherlink.com 1.10,2013-07-21 12:39:00,
2013-07-21 08:54:00,67.1,60.0,29.93,SSE,156,1.0,2.0,78,0.00,,,0.00,weatherlink.com 1.10,2013-07-21 12:54:00,
2013-07-21 09:09:00,67.0,59.0,29.93,SSE,161,0.0,2.0,76,0.00,,,0.00,weatherlink.com 1.10,2013-07-21 13:09:00,
2013-07-21 09:24:00,68.9,61.0,29.93,SE,135,0.0,3.0,77,0.00,,,0.00,weatherlink.com 1.10,2013-07-21 13:24:00,
2013-07-21 09:39:00,67.7,61.0,29.93,WSW,241,0.0,3.0,80,0.00,,,0.00,weatherlink.com 1.10,2013-07-21 13:39:00,
2013-07-21 09:54:00,67.9,59.0,29.94,SW,229,1.0,4.0,74,0.00,,,0.00,weatherlink.com 1.10,2013-07-21 13:54:00,
2013-07-21 10:09:00,69.6,62.0,29.94,SE,131,0.0,2.0,77,0.00,,,0.00,weatherlink.com 1.10,2013-07-21 14:09:00,
2013-07-21 10:24:00,69.7,62.0,29.94,South,191,0.0,2.0,76,0.00,,,0.00,weatherlink.com 1.10,2013-07-21 14:24:00,
2013-07-21 10:39:00,69.5,61.0,29.95,SSE,160,2.0,2.0,73,0.00,,,0.00,weatherlink.com 1.10,2013-07-21 14:39:00,
2013-07-21 10:54:00,68.7,61.0,29.95,SW,214,0.0,1.0,77,0.00,,,0.00,weatherlink.com 1.10,2013-07-21 14:54:00,
2013-07-21 11:09:00,69.4,61.0,29.95,SW,218,0.0,2.0,74,0.00,,,0.00,weatherlink.com 1.10,2013-07-21 15:09:00,
2013-07-21 11:24:00,70.6,59.0,29.95,West,262,1.0,5.0,67,0.00,,,0.00,weatherlink.com 1.10,2013-07-21 15:24:00,
2013-07-21 11:39:00,72.1,61.0,29.94,East,90,0.0,3.0,67,0.00,,,0.00,weatherlink.com 1.10,2013-07-21 15:39:00,
2013-07-21 11:54:00,72.1,61.0,29.95,East,86,1.0,3.0,67,0.00,,,0.00,weatherlink.com 1.10,2013-07-21 15:54:00,
2013-07-21 12:09:00,70.6,60.0,29.95,South,191,1.0,5.0,69,0.00,,,0.00,weatherlink.com 1.10,2013-07-21 16:09:00,
2013-07-21 12:24:00,72.5,63.0,29.95,ESE,117,0.0,2.0,71,0.00,,,0.00,weatherlink.com 1.10,2013-07-21 16:24:00,
2013-07-21 12:39:00,74.9,60.0,29.95,SW,230,0.0,3.0,61,0.00,,,0.00,weatherlink.com 1.10,2013-07-21 16:39:00,
2013-07-21 12:54:00,72.7,61.0,29.95,ESE,123,0.0,2.0,67,0.00,,,0.00,weatherlink.com 1.10,2013-07-21 16:54:00,
2013-07-21 13:09:00,73.0,60.0,29.95,SW,219,2.0,3.0,64,0.00,,,0.00,weatherlink.com 1.10,2013-07-21 17:09:00,
2013-07-21 13:24:00,73.3,57.0,29.95,NNW,337,0.0,1.0,58,0.00,,,0.00,weatherlink.com 1.10,2013-07-21 17:24:00,
2013-07-21 13:39:00,71.9,58.0,29.95,WNW,295,0.0,5.0,62,0.00,,,0.00,weatherlink.com 1.10,2013-07-21 17:39:00,
2013-07-21 13:54:00,71.7,59.0,29.94,WSW,241,2.0,2.0,64,0.00,,,0.00,weatherlink.com 1.10,2013-07-21 17:54:00,
2013-07-21 14:09:00,71.7,57.0,29.94,West,269,2.0,2.0,60,0.00,,,0.00,weatherlink.com 1.10,2013-07-21 18:09:00,
2013-07-21 14:24:00,72.0,60.0,29.95,WSW,241,0.0,3.0,66,0.00,,,0.00,weatherlink.com 1.10,2013-07-21 18:24:00,
2013-07-21 14:39:00,72.1,58.0,29.94,South,171,1.0,5.0,61,0.00,,,0.00,weatherlink.com 1.10,2013-07-21 18:39:00,
2013-07-21 14:54:00,71.9,58.0,29.94,SW,228,1.0,3.0,61,0.00,,,0.00,weatherlink.com 1.10,2013-07-21 18:54:00,
2013-07-21 15:10:00,72.2,56.0,29.95,SW,232,1.0,2.0,57,0.00,,,0.00,weatherlink.com 1.10,2013-07-21 19:10:00,
2013-07-21 15:25:00,72.0,56.0,29.94,WSW,241,0.0,4.0,58,0.00,,,0.00,weatherlink.com 1.10,2013-07-21 19:25:00,
2013-07-21 15:40:00,72.4,57.0,29.94,NNE,12,1.0,2.0,59,0.00,,,0.00,weatherlink.com 1.10,2013-07-21 19:40:00,
2013-07-21 15:55:00,72.0,59.0,29.94,NE,34,0.0,3.0,63,0.00,,,0.00,weatherlink.com 1.10,2013-07-21 19:55:00,
2013-07-21 16:10:00,70.8,59.0,29.94,South,180,0.0,2.0,67,0.00,,,0.00,weatherlink.com 1.10,2013-07-21 20:10:00,
2013-07-21 16:25:00,70.1,57.0,29.94,SW,215,0.0,1.0,64,0.00,,,0.00,weatherlink.com 1.10,2013-07-21 20:25:00,
2013-07-21 16:40:00,70.3,58.0,29.94,SSE,149,0.0,2.0,65,0.00,,,0.00,weatherlink.com 1.10,2013-07-21 20:40:00,
2013-07-21 16:55:00,69.8,58.0,29.93,SW,219,0.0,1.0,67,0.00,,,0.00,weatherlink.com 1.10,2013-07-21 20:55:00,
2013-07-21 17:10:00,68.8,56.0,29.93,South,190,0.0,0.0,63,0.00,,,0.00,weatherlink.com 1.10,2013-07-21 21:10:00,
2013-07-21 17:25:00,69.2,57.0,29.93,South,191,0.0,0.0,65,0.00,,,0.00,weatherlink.com 1.10,2013-07-21 21:25:00,
2013-07-21 17:40:00,69.0,58.0,29.93,South,191,0.0,0.0,68,0.00,,,0.00,weatherlink.com 1.10,2013-07-21 21:40:00,
2013-07-21 17:55:00,68.5,57.0,29.93,WSW,244,0.0,0.0,67,0.00,,,0.00,weatherlink.com 1.10,2013-07-21 21:55:00,
2013-07-21 18:10:00,68.3,59.0,29.93,WSW,244,0.0,0.0,72,0.00,,,0.00,weatherlink.com 1.10,2013-07-21 22:10:00,
2013-07-21 18:25:00,67.7,58.0,29.93,WSW,244,0.0,0.0,72,0.00,,,0.00,weatherlink.com 1.10,2013-07-21 22:25:00,
2013-07-21 18:40:00,67.0,59.0,29.93,WSW,244,0.0,0.0,75,0.00,,,0.00,weatherlink.com 1.10,2013-07-21 22:40:00,
2013-07-21 18:55:00,66.0,59.0,29.94,WSW,244,0.0,1.0,77,0.00,,,0.00,weatherlink.com 1.10,2013-07-21 22:55:00,
2013-07-21 19:10:00,65.0,59.0,29.94,WSW,244,0.0,1.0,80,0.00,,,0.00,weatherlink.com 1.10,2013-07-21 23:10:00,
2013-07-21 19:25:00,63.7,60.0,29.94,WSW,244,0.0,1.0,86,0.00,,,0.00,weatherlink.com 1.10,2013-07-21 23:25:00,
2013-07-21 19:40:00,62.8,59.0,29.94,WSW,244,1.0,1.0,87,0.00,,,0.00,weatherlink.com 1.10,2013-07-21 23:40:00,
2013-07-21 19:55:00,61.9,58.0,29.95,NE,48,1.0,1.0,87,0.00,,,0.00,weatherlink.com 1.10,2013-07-21 23:55:00,
2013-07-21 20:10:00,61.7,59.0,29.95,NE,48,0.0,1.0,89,0.00,,,0.00,weatherlink.com 1.10,2013-07-22 00:10:00,
2013-07-21 20:25:00,61.2,57.0,29.95,NE,48,0.0,1.0,87,0.00,,,0.00,weatherlink.com 1.10,2013-07-22 00:25:00,
2013-07-21 20:40:00,60.8,57.0,29.95,NE,48,0.0,1.0,88,0.00,,,0.00,weatherlink.com 1.10,2013-07-22 00:40:00,
2013-07-21 20:55:00,60.3,57.0,29.96,NE,48,0.0,0.0,89,0.00,,,0.00,weatherlink.com 1.10,2013-07-22 00:55:00,
2013-07-21 21:10:00,59.9,57.0,29.97,NE,48,1.0,1.0,90,0.00,,,0.00,weatherlink.com 1.10,2013-07-22 01:10:00,
2013-07-21 21:25:00,59.7,57.0,29.97,NE,49,0.0,1.0,89,0.00,,,0.00,weatherlink.com 1.10,2013-07-22 01:25:00,
2013-07-21 21:40:00,59.6,56.0,29.98,NE,49,0.0,1.0,87,0.00,,,0.00,weatherlink.com 1.10,2013-07-22 01:40:00,
2013-07-21 21:55:00,59.5,56.0,29.98,NE,48,0.0,1.0,88,0.00,,,0.00,weatherlink.com 1.10,2013-07-22 01:55:00,
2013-07-21 22:10:00,59.8,56.0,29.98,NE,48,0.0,1.0,88,0.00,,,0.00,weatherlink.com 1.10,2013-07-22 02:10:00,
2013-07-21 22:25:00,59.6,56.0,29.99,NE,48,0.0,1.0,88,0.00,,,0.00,weatherlink.com 1.10,2013-07-22 02:25:00,
2013-07-21 22:40:00,59.3,56.0,29.99,NE,49,0.0,2.0,87,0.00,,,0.00,weatherlink.com 1.10,2013-07-22 02:40:00,
2013-07-21 22:55:00,59.5,56.0,30.00,NNE,31,0.0,1.0,88,0.00,,,0.00,weatherlink.com 1.10,2013-07-22 02:55:00,
2013-07-21 23:10:00,60.6,54.0,30.00,NNW,346,0.0,2.0,78,0.00,,,0.00,weatherlink.com 1.10,2013-07-22 03:10:00,
2013-07-21 23:25:00,60.5,55.0,30.00,NNW,338,0.0,1.0,83,0.00,,,0.00,weatherlink.com 1.10,2013-07-22 03:25:00,
2013-07-21 23:40:00,59.9,55.0,30.00,NW,322,0.0,2.0,83,0.00,,,0.00,weatherlink.com 1.10,2013-07-22 03:40:00,
2013-07-21 23:55:00,59.1,54.0,30.01,NNW,336,0.0,1.0,84,0.00,,,0.00,weatherlink.com 1.10,2013-07-22 03:55:00,